Location: Cincinnati Observatory Center
(39.1389°N, 84.4225°W)
Time: 20:39:10
(UTC-04:00)

Daily predictions for brighter satellites

Satellite Brightness Start Highest point End
(mag) Time Altitude Azimuth Time Altitude Azimuth Time Altitude Azimuth
Meteor 2-10 Rocket 3.8 21:18:47 10° N 21:24:39 82° E 21:30:26 10° S
Cosmos 2034 Rocket 4.0 21:18:41 10° N 21:24:55 87° E 21:31:05 10° S
Meteor 2-3 Rocket 4.1 21:21:14 10° SSE 21:26:40 47° E 21:32:05 10° NNE
GPS 2-04 Rocket1 3.0 21:23:07 10° WSW 21:26:43 43° S 21:30:09 10° E
COSMOS 2487 2.9 21:24:30 10° NNW 21:28:01 63° WSW 21:31:31 10° S
Meteor 1-26 Rocket 4.4 21:23:15 10° N 21:28:48 56° ENE 21:34:24 10° SSE
OAO 2 Rocket 4.2 21:24:36 10° W 21:29:16 37° SSW 21:33:51 10° SE
Helios 1B rocket 3.0 21:28:40 10° NNE 21:32:31 38° E 21:36:20 10° SSE
Cosmos 2082 Rocket 3.3 21:29:58 10° NW 21:35:20 45° WSW 21:40:41 10° S
H-2A R/B 4.1 21:33:59 10° E 21:36:37 14° ENE 21:39:14 10° NNE
In-Cosmos 22 Rocket 4.5 21:31:51 10° S 21:37:37 82° W 21:43:30 10° N
OE (NEXTSAT) 4.4 21:35:08 10° WNW 21:38:42 86° NNE 21:42:01 11° ESE
Cosmos 1937 Rocket 3.5 21:33:46 10° SSW 21:38:54 88° WNW 21:44:04 10° NNE
CZ-4B DEB 3.6 21:37:46 10° SE 21:40:18 29° ENE 21:42:54 10° N
Cosmos 2344 4.5 21:34:35 10° SSE 21:40:28 24° ESE 21:46:32 10° ENE
Cosmos 2242 Rocket 4.4 21:36:12 10° NNW 21:40:35 54° W 21:44:53 10° S
Lacrosse 4 Rocket 3.9 21:39:28 10° NNE 21:40:51 11° NE 21:42:14 10° ENE
SL-19 R/B 4.4 21:36:36 10° SSE 21:42:16 76° ENE 21:48:22 10° NNW
Cosmos 1408 4.3 21:42:05 11° SE 21:44:18 17° E 21:46:49 10° NE
Cosmos 1833 Rocket 4.1 21:41:19 10° NW 21:46:28 37° WSW 21:51:35 10° S
Cosmos 2150 Rocket 4.2 21:41:37 10° SSW 21:47:00 79° WNW 21:52:20 10° NNE
Cosmos 2298 Rocket 4.4 21:42:01 10° SSW 21:47:17 69° WNW 21:52:35 10° NNE
Meteor 1-29 3.4 21:44:11 10° NNE 21:47:32 42° E 21:50:51 10° S
Cosmos 1315 Rocket 4.1 21:44:01 10° SSW 21:47:52 44° WNW 21:51:47 10° N
Cosmos 1825 3.7 21:45:47 12° SE 21:47:54 18° E 21:50:33 10° NE
Shenzhou-11 Module 1.9 21:49:44 10° WNW 21:52:49 81° SSW 21:55:05 17° ESE
Resurs 01 Rocket 3.4 21:49:56 10° SSW 21:53:51 31° W 21:57:49 10° NW
Cosmos 1862 Rocket 4.5 21:53:37 10° NNW 21:57:59 51° W 22:02:19 10° S
Helios 1A 3.0 21:56:20 10° SSE 22:00:31 87° W 22:04:44 10° NNW
Molniya-1 2.5 21:58:48 10° SSW 22:00:35 40° SE 22:01:09 27° ENE
Cosmos 1892 3.2 21:58:27 10° SSW 22:02:16 63° W 22:06:06 10° N
COSMOS 2455 2.8 21:59:32 10° SSW 22:05:32 80° ESE 22:11:34 10° NNE
ERS-1 Rocket 3.2 22:03:27 14° SSE 22:07:35 56° ENE 22:12:31 10° N
Cosmos 2279 Rocket 4.4 22:03:07 10° N 22:09:05 44° ENE 22:13:33 17° SE
Cosmos 1943 Rocket 2.5 22:05:47 10° S 22:11:00 42° ESE 22:16:12 10° NE
Cosmos 2263 4.3 22:08:36 10° S 22:14:15 58° ESE 22:19:52 10° NNE
Cosmos 2142 Rocket 4.4 22:08:08 10° N 22:14:16 74° E 22:19:54 13° SSE
Aureole 1 4.4 22:11:49 10° SSW 22:14:48 72° WNW 22:18:07 10° NNE
NOAA 11 4.2 22:13:36 15° SSE 22:18:06 72° ENE 22:23:35 10° N
Milstar 3 4.1 22:12:38 10° SW 22:23:01 34° S 22:27:30 20° ESE
USA 215 3.4 22:19:36 18° ESE 22:24:34 67° NE 22:31:05 10° NW
Cosmos 1340 3.5 22:21:26 10° N 22:24:53 33° ENE 22:25:58 27° ESE
Okean 1-7 3.0 22:22:03 10° N 22:26:28 78° E 22:29:16 22° SSE
Lacrosse 5 rocket 1.2 22:24:36 10° SW 22:28:09 72° NW 22:31:47 10° NE
Cosmos 2369 Rocket 2.4 22:23:04 10° SSW 22:28:42 76° WNW 22:34:25 10° NNE
Cosmos 1346 Rocket 4.3 22:28:15 10° NNW 22:31:51 34° W 22:35:29 10° SSW
SPOT 1/Viking Rocket 4.1 22:31:52 25° ESE 22:34:19 42° ENE 22:39:12 10° N
Cosmos 1703 Rocket 4.2 22:30:39 10° NNW 22:34:58 54° W 22:38:35 14° SSW
Cosmos 1606 2.6 22:32:05 10° N 22:35:52 74° E 22:37:21 35° SSE
SL-08 RB Rocket 4.0 22:35:00 29° SE 22:37:09 55° ENE 22:41:43 10° N
DNEPR-1 R/B 3.7 22:31:49 10° SSW 22:37:12 80° ESE 22:41:48 10° NE
Cosmos 468 4.4 22:32:42 10° NNW 22:38:00 85° ENE 22:40:55 27° SSE
ISS -2.2 22:40:12 10° W 22:43:14 36° NNW 22:46:18 10° NE
Cosmos 372 Rocket 3.8 22:41:06 10° SSW 22:46:14 83° ESE 22:51:22 10° NNE
Meteor 1-10 Rocket 4.3 22:40:28 10° N 22:46:26 85° W 22:50:18 23° S
Cosmos 1269 Rocket 4.1 22:41:14 10° NNW 22:46:30 65° ENE 22:48:45 34° SE
Cosmos 1733 Rocket 3.4 22:45:52 38° ESE 22:46:43 43° E 22:50:49 10° NNE
Meteor 1-27 Rocket 3.9 22:41:03 10° N 22:46:44 57° ENE 22:49:13 32° SE
Terra 3.0 22:49:48 25° E 22:50:54 28° ENE 22:54:56 10° N
CENTAUR R/B 2.5 22:46:09 10° SW 22:52:06 82° WNW 22:58:55 10° NNE
Cosmos 1125 Rocket 3.7 22:46:54 10° SSW 22:52:08 73° WNW 22:57:22 10° NNE
Nimbus 7 Rocket 4.3 22:50:35 10° NNE 22:56:26 65° ESE 22:59:42 27° S
ATLAS 5 CENTAUR R/B 2.6 22:50:32 10° NNW 22:56:32 65° NE 22:59:28 33° SE
Tiangong 2 2.3 22:55:16 10° W 22:57:47 33° SW 22:57:47 33° SW
Meteor 2-6 Rocket 4.5 22:53:09 10° NNW 22:59:05 73° W 23:02:43 25° S
SPOT 5 3.1 22:58:43 31° S 23:01:22 81° WSW 23:06:43 10° NNW
GPS 2-04 Rocket1 3.4 23:02:42 10° W 23:05:16 35° SW 23:05:16 35° SW
Cosmos 1782 4.1 23:04:25 10° NNW 23:08:06 37° W 23:09:53 24° SW
Cosmos 2084 4.2 23:04:51 10° NW 23:08:24 36° WSW 23:09:06 33° SW
ARGOS 3.5 23:06:21 27° S 23:09:12 59° W 23:14:31 10° NNW
Cosmos 1656 Rocket 3.6 23:10:03 42° SSE 23:11:41 60° ESE 23:17:05 10° NNE
H-2A R/B 2.2 23:13:15 39° S 23:15:21 79° WSW 23:20:44 10° NNW
CARTOSAT-1 3.8 23:19:18 52° E 23:19:28 52° ENE 23:23:42 10° N
Lacrosse 4 Rocket 1.4 23:15:45 10° NNW 23:20:16 89° ENE 23:20:44 72° SSE
Cosmos 1825 4.3 23:20:38 12° SW 23:23:18 24° WNW 23:26:26 10° NNW
Cosmos 1674 Rocket 3.3 23:20:26 10° N 23:24:46 76° E 23:24:54 75° ESE
Cosmos 1862 4.3 23:24:27 32° SW 23:25:45 43° W 23:29:35 10° N
Cosmos 1378 Rocket 4.2 23:22:05 10° N 23:26:03 41° ENE 23:26:03 41° ENE
Cosmos 494 Rocket 4.2 23:23:16 10° N 23:28:25 54° ENE 23:29:03 51° E
Cosmos 1092 Rocket 3.8 23:27:20 46° SSE 23:29:18 76° E 23:35:26 10° N
ATLAS CENTAUR R/B 3.7 23:33:01 12° NE 23:33:01 12° NE 23:33:23 10° NE
Nadezhda 4 Rocket 4.1 23:27:53 30° SSW 23:31:11 74° W 23:37:22 10° N
H-2A R/B 2.6 23:37:08 44° NE 23:37:08 44° NE 23:40:34 10° N
Cosmos 2227 Rocket 4.1 23:34:06 10° N 23:37:46 17° NE 23:39:30 15° ENE
Cosmos 2219 3.6 23:37:09 10° NNW 23:42:45 50° ENE 23:43:36 46° E
CZ-4B R/B 4.1 23:42:17 10° NNE 23:46:05 39° ENE 23:46:05 39° ENE
Cosmos 1812 4.1 23:43:38 10° N 23:46:07 32° NE 23:46:07 32° NE
Cosmos 1943 Rocket 4.1 23:50:11 10° WSW 23:54:51 27° WNW 23:59:32 10° N
